Location: Newark
(25.6108°S, 54.5803°W)
Time: 05:41:20
(UTC+00:00)

deb Explorer IX - Pass Details

Date: 03 November 2020
Orbit: 538 x 1104 km, 38.8° (Epoch: 29 November)

Event Time Altitude Azimuth Distance (km) Brightness Sun altitude
Rises 22:32:15 0° 234° (SW) 3,235 ? -8.5°
Reaches altitude 10° 22:35:12 10° 222° (SW) 2,201 ? -9.1°
Maximum altitude 22:39:32 28° 163° (SSE) 1,229 ? -10.0°
Drops below altitude 10° 22:43:22 10° 103° (ESE) 1,938 ? -10.8°
Enters shadow 22:43:30 - 102° (ESE) 1,978 ? -10.8°
Sets 22:45:48 0° 91° (E) 2,777 - -11.3°
